EW9444 Weather Reports


Display with metric or nautical units.
time (UTC)temp
F
wind
direction
speed
MPH
gust
MPH
rain 1hr
in
rain 24hr
in
rain mn
in
humidity
%
barometer
mb
20181022113051 33 84 1.0 3.0 0.00 0.00 0.00 85 1019.3
20181022111604 33 343 0.0 2.0 0.00 0.00 0.00 86 1019.1
20181022110109 32 343 1.0 4.0 0.00 0.00 0.00 85 1019.2
20181022104549 32 343 0.0 0.0 0.00 0.00 0.00 89 1019.1
20181022103112 32 343 0.0 0.0 0.00 0.00 0.00 88 1019.3
20181022101631 32 343 0.0 1.0 0.00 0.00 0.00 86 1019.3
20181022100043 31 343 1.0 3.0 0.00 0.00 0.00 87 1019.2
20181022094549 31 343 0.0 0.0 0.00 0.00 0.00 90 1019.2
20181022093040 31 343 0.0 0.0 0.00 0.00 0.00 89 1019.1
20181022091605 30 196 0.0 0.0 0.00 0.00 0.00 87 1018.7
20181022090028 30 196 0.0 0.0 0.00 0.00 0.00 88 1018.8
20181022084610 30 343 0.0 0.0 0.00 0.00 0.00 87 1018.8
20181022083026 31 343 0.0 0.0 0.00 0.00 0.00 87 1018.7
20181022081527 31 343 0.0 2.0 0.00 0.00 0.00 85 1018.7
20181022080037 32 343 0.0 1.0 0.00 0.00 0.00 82 1018.6
20181022074539 32 343 0.0 2.0 0.00 0.00 0.00 81 1018.6
20181022073111 33 343 0.0 2.0 0.00 0.00 0.00 84 1018.5
20181022071519 33 343 1.0 3.0 0.00 0.00 0.00 82 1018.4
20181022070012 33 343 0.0 2.0 0.00 0.00 0.00 78 1018.3
20181022064513 33 343 0.0 1.0 0.00 0.00 0.00 80 1018.5
20181022063015 33 237 0.0 2.0 0.00 0.00 0.00 79 1018.6
20181022061520 33 343 0.0 3.0 0.00 0.00 0.00 78 1018.6
20181022060024 32 343 0.0 2.0 0.00 0.00 0.00 82 1018.5
20181022054526 32 343 0.0 1.0 0.00 0.00 0.00 83 1018.3
20181022053008 32 343 0.0 0.0 0.00 0.00 0.00 86 1018.3
20181022051504 32 343 0.0 0.0 0.00 0.00 0.00 85 1018.1
20181022050001 32 343 0.0 0.0 0.00 0.00 0.00 83 1018.1
20181022044648 32 257 0.0 0.0 0.00 0.00 0.00 83 1018.1
20181022041644 33 257 0.0 0.0 0.00 0.00 0.00 80 1017.7
20181022040136 34 343 0.0 0.0 0.00 0.00 0.00 79 1017.7
20181022034717 34 343 0.0 0.0 0.00 0.00 0.00 78 1017.6
20181022033203 34 343 0.0 0.0 0.00 0.00 0.00 76 1017.4
20181022031626 35 343 0.0 1.0 0.00 0.00 0.00 74 1017.3
20181022030148 35 343 0.0 3.0 0.00 0.00 0.00 75 1017.4
20181022024721 36 343 0.0 0.0 0.00 0.00 0.00 73 1017.4
20181022023109 36 343 0.0 0.0 0.00 0.00 0.00 71 1017.4
20181022021615 37 343 0.0 0.0 0.00 0.00 0.00 66 1017.3
20181022020106 37 343 0.0 2.0 0.00 0.00 0.00 65 1017.0
20181022014623 38 343 1.0 2.0 0.00 0.00 0.00 61 1016.9
20181022013047 38 343 1.0 5.0 0.00 0.00 0.00 52 1016.8
20181022011535 38 343 2.0 5.0 0.00 0.00 0.00 53 1016.7
20181022010058 38 343 2.0 9.0 0.00 0.00 0.00 51 1016.6
20181022004538 39 343 1.0 6.0 0.00 0.00 0.00 53 1016.4
20181022003125 38 343 0.0 9.0 0.00 0.00 0.00 54 1016.3
20181021234549 38 343 1.0 5.0 0.00 0.00 0.00 53 1016.3
20181021233044 38 343 2.0 4.0 0.00 0.00 0.00 52 1016.2
20181021231559 38 343 2.0 5.0 0.00 0.00 0.00 54 1016.0
20181021230031 38 343 0.0 1.0 0.00 0.00 0.00 53 1015.9
20181021224540 38 343 1.0 4.0 0.00 0.00 0.00 52 1015.7
20181021223020 39 343 0.0 5.0 0.00 0.00 0.00 51 1015.3
20181021221512 39 343 1.0 6.0 0.00 0.00 0.00 49 1014.9
20181021220025 40 343 2.0 5.0 0.00 0.00 0.00 48 1014.7
20181021214504 41 343 2.0 9.0 0.00 0.00 0.00 47 1014.6
20181021213121 42 343 3.0 11.0 0.00 0.00 0.00 46 1014.3
20181021211708 42 343 7.0 17.0 0.00 0.00 0.00 43 1014.1
20181021210141 42 343 4.0 16.0 0.00 0.00 0.00 44 1013.8
20181021204759 42 343 5.0 12.0 0.00 0.00 0.00 44 1013.6
20181021203122 42 343 4.0 13.0 0.00 0.00 0.00 44 1013.4
20181021201613 43 343 4.0 11.0 0.00 0.00 0.00 44 1013.1
20181021200111 42 343 4.0 16.0 0.00 0.00 0.00 43 1012.9
20181021194611 43 343 9.0 19.0 0.00 0.00 0.00 40 1013.0
20181021193119 44 343 5.0 16.0 0.00 0.00 0.00 42 1012.9
20181021191817 44 343 4.0 14.0 0.00 0.00 0.00 42 1012.9
20181021190134 43 300 5.0 13.0 0.00 0.00 0.00 42 1012.9
20181021184712 43 42 5.0 14.0 0.00 0.00 0.00 42 1012.8
20181021183058 43 343 9.0 21.0 0.00 0.00 0.00 42 1012.7
20181021181552 42 321 5.0 19.0 0.00 0.00 0.00 42 1012.6
20181021180149 42 343 3.0 8.0 0.00 0.00 0.00 45 1012.6
20181021174759 42 343 3.0 10.0 0.00 0.00 0.00 46 1012.6
20181021173058 41 343 9.0 19.0 0.00 0.00 0.00 44 1012.8
20181021171712 41 343 8.0 18.0 0.00 0.00 0.00 47 1012.8
20181021164600 41 343 6.0 24.0 0.00 0.00 0.00 48 1012.8
20181021163111 42 343 6.0 18.0 0.00 0.00 0.00 46 1012.7
20181021161612 42 343 5.0 12.0 0.00 0.00 0.00 48 1012.7
20181021160052 41 343 6.0 14.0 0.00 0.00 0.00 51 1012.6
20181021154615 40 343 7.0 18.0 0.00 0.00 0.00 50 1012.7
20181021153101 39 343 7.0 11.0 0.00 0.00 0.00 54 1012.6
20181021151553 40 343 4.0 11.0 0.00 0.00 0.00 55 1012.4
20181021150043 39 343 3.0 15.0 0.00 0.00 0.00 57 1012.2
20181021144553 39 343 8.0 14.0 0.00 0.00 0.00 58 1012.3
20181021143033 39 4 2.0 6.0 0.00 0.00 0.00 60 1012.0
20181021141537 39 343 5.0 13.0 0.00 0.00 0.00 58 1011.9
20181021140032 39 343 6.0 16.0 0.00 0.00 0.00 56 1011.7
20181021134551 40 343 7.0 15.0 0.00 0.00 0.00 55 1011.5
20181021133038 40 343 7.0 16.0 0.00 0.00 0.00 54 1011.3
20181021131525 40 343 7.0 15.0 0.00 0.00 0.00 56 1011.0
20181021130025 39 343 10.0 20.0 0.00 0.00 0.00 57 1010.6
20181021124511 39 343 4.0 17.0 0.00 0.00 0.00 60 1010.4
20181021123015 39 343 7.0 13.0 0.00 0.00 0.00 60 1010.0
20181021121504 39 343 4.0 12.0 0.00 0.00 0.00 64 1009.7
20181021120236 39 343 4.0 12.0 0.00 0.00 0.00 64 1009.3
20181021114657 39 343 9.0 17.0 0.00 0.00 0.00 64 1009.0